Find Kuiper-00065

NORAD ID: 64525 Int'l Des: 2025-134 Owner: KUIP Country: US Constellation: kuiper operational
LEOCIRCULAR

Live Position

Loading 3D Globe...

About Kuiper-00065

Description loading...

Upcoming Passes

Passes for default location (London). Set your location on the main map for personalized predictions.

Altitude History

Loading altitude history...

Two-Line Element Set

1 64525U 25134AB 26107.11423687 .00002093 00000-0 30355-3 0 9998
2 64525 51.9046 70.7795 0000841 78.9873 281.1184 14.79923039 45640
Epoch: Apr 17, 2026 • Age: 12 hours

Current Status

Altitude 641.1 km
Velocity 7.54 km/s
Sub-Earth Point -35.02°S, 150.73°W
Launch Date Jun 23, 2025
Age 0.8 years
Type internet

Technical Details

Classification Payload
Mass 490.00 kg
Dry Mass 490.00 kg
Total Mass 490.00 kg
Length 1.80 m
Diameter 0.70 m
Span 5.00 m
Shape Box + 2 pan
Manufacturer KUIP
Bus Type Kuiper
Phase Status In Orbit
Owner/State KUIP/US

Most Searched